Location: Street
(51.1247°N, 2.7429°W)
Time: 06:11:29
(UTC+00:00)

SR - Pass Details

Date: 29 November 2020
Orbit: 575 x 880 km, 66.7° (Epoch: 25 January)

Event Time Altitude Azimuth Distance (km) Brightness Sun altitude
Rises 23:00:33 0° 309° (NW) 3,003 - -58.4°
Reaches altitude 10° 23:04:00 10° 336° (NNW) 2,159 - -58.6°
Maximum altitude 23:06:28 14° 6° (N) 1,969 - -58.8°
Drops below altitude 10° 23:09:02 10° 36° (NE) 2,262 - -58.9°
Sets 23:12:49 0° 62° (ENE) 3,263 - -59.2°
